OK1VCF-8 Weather Reports


time (UTC)temp
C
wind
direction
speed
KPH
gust
KPH
rain 1hr
cm
rain 24hr
cm
rain mn
cm
humidity
%
barometer
mb
20260510073243 13 0 0.0 0.0 0.00 0.00 0.00 63 1016.7
20260510072516 13 0 0.0 0.0 0.00 0.00 0.00 64 1016.8
20260510071736 13 0 0.0 0.0 0.00 0.00 0.00 64 1017.0
20260510070959 12 0 0.0 0.0 0.00 0.00 0.00 66 1017.1
20260510070216 12 0 0.0 0.0 0.00 0.00 0.00 66 1017.0
20260510065139 12 0 0.0 0.0 0.00 0.00 0.00 67 1017.3
20260510064359 12 0 0.0 0.0 0.00 0.00 0.00 68 1017.4
20260510063620 12 0 0.0 0.0 0.00 0.00 0.00 70 1017.6
20260510062839 11 0 0.0 0.0 0.00 0.00 0.00 70 1017.4
20260510062101 11 0 0.0 0.0 0.00 0.00 0.00 72 1017.4
20260510061325 11 0 0.0 0.0 0.00 0.00 0.00 72 1017.4
20260510060549 11 0 0.0 0.0 0.00 0.00 0.00 72 1017.4
20260510055812 11 0 0.0 0.0 0.00 0.00 0.00 72 1017.6
20260510055040 11 0 0.0 0.0 0.00 0.00 0.00 74 1017.7
20260510054322 11 0 0.0 0.0 0.00 0.00 0.00 74 1017.8
20260510053603 10 0 0.0 0.0 0.00 0.00 0.00 76 1017.8
20260510052844 10 0 0.0 0.0 0.00 0.00 0.00 77 1017.8
20260510052126 10 0 0.0 0.0 0.00 0.00 0.00 76 1017.9
20260510051407 10 0 0.0 0.0 0.00 0.00 0.00 77 1017.8
20260510050649 9 0 0.0 0.0 0.00 0.00 0.00 78 1017.8
20260510045644 9 0 0.0 0.0 0.00 0.00 0.00 78 1017.8
20260510044927 10 0 0.0 0.0 0.00 0.00 0.00 72 1017.8
20260510044209 13 0 0.0 0.0 0.00 0.00 0.00 64 1017.8
20260510043452 13 0 0.0 0.0 0.00 0.00 0.00 66 1017.7
20260510042731 11 0 0.0 0.0 0.00 0.00 0.00 75 1017.8
20260510042013 8 0 0.0 0.0 0.00 0.00 0.00 79 1017.8
20260510041255 8 0 0.0 0.0 0.00 0.00 0.00 78 1017.8
20260510040538 11 0 0.0 0.0 0.00 0.00 0.00 77 1017.8
20260510035818 10 0 0.0 0.0 0.00 0.00 0.00 80 1018.0
20260510035101 8 0 0.0 0.0 0.00 0.00 0.00 87 1017.8
20260510034342 6 0 0.0 0.0 0.00 0.00 0.00 90 1017.8
20260510033625 6 0 0.0 0.0 0.00 0.00 0.00 90 1017.6
20260510032907 5 0 0.0 0.0 0.00 0.00 0.00 89 1017.6
20260510032148 5 0 0.0 0.0 0.00 0.00 0.00 89 1017.6
20260510031430 5 0 0.0 0.0 0.00 0.00 0.00 88 1017.5
20260510030429 6 0 0.0 0.0 0.00 0.00 0.00 89 1017.6
20260510025709 5 0 0.0 0.0 0.00 0.00 0.00 89 1017.6
20260510024952 5 0 0.0 0.0 0.00 0.00 0.00 88 1017.8
20260510024234 5 0 0.0 0.0 0.00 0.00 0.00 88 1017.8
20260510023517 6 0 0.0 0.0 0.00 0.00 0.00 88 1017.6
20260510022800 6 0 0.0 0.0 0.00 0.00 0.00 88 1017.8
20260510022041 6 0 0.0 0.0 0.00 0.00 0.00 88 1017.8
20260510021322 6 0 0.0 0.0 0.00 0.00 0.00 88 1018.1
20260510020605 6 0 0.0 0.0 0.00 0.00 0.00 88 1018.2
20260510015847 6 0 0.0 0.0 0.00 0.00 0.00 87 1018.2
20260510015130 6 0 0.0 0.0 0.00 0.00 0.00 86 1018.2
20260510014413 6 0 0.0 0.0 0.00 0.00 0.00 87 1018.2
20260510013655 7 0 0.0 0.0 0.00 0.00 0.00 88 1018.3
20260510012935 6 0 0.0 0.0 0.00 0.00 0.00 85 1018.4
20260510012216 7 0 0.0 0.0 0.00 0.00 0.00 85 1018.4
20260510011133 7 0 0.0 0.0 0.00 0.00 0.00 85 1018.4
20260510010336 7 0 0.0 0.0 0.00 0.00 0.00 86 1018.4
20260510005538 6 0 0.0 0.0 0.00 0.00 0.00 85 1018.4
20260510004750 7 0 0.0 0.0 0.00 0.00 0.00 84 1018.5
20260510002511 7 0 0.0 0.0 0.00 0.00 0.00 84 1018.8
20260510001714 7 0 0.0 0.0 0.00 0.00 0.00 84 1019.0
20260510000916 7 0 0.0 0.0 0.00 0.00 0.00 84 1019.0
20260510000120 7 0 0.0 0.0 0.00 0.00 0.00 82 1019.2
20260509235315 7 0 0.0 0.0 0.00 0.00 0.00 82 1019.2
20260509234518 7 0 0.0 0.0 0.00 0.00 0.00 80 1019.2
20260509233731 8 0 0.0 0.0 0.00 0.00 0.00 83 1019.3
20260509232955 7 0 0.0 0.0 0.00 0.00 0.00 82 1019.2
20260509232223 8 0 0.0 0.0 0.00 0.00 0.00 81 1019.2
20260509231221 8 0 0.0 0.0 0.00 0.00 0.00 80 1019.4
20260509230502 8 0 0.0 0.0 0.00 0.00 0.00 82 1019.5
20260509225743 8 0 0.0 0.0 0.00 0.00 0.00 82 1019.4
20260509225024 8 0 0.0 0.0 0.00 0.00 0.00 80 1019.6
20260509224305 8 0 0.0 0.0 0.00 0.00 0.00 80 1019.5
20260509223548 8 0 0.0 0.0 0.00 0.00 0.00 80 1019.6
20260509222830 8 0 0.0 0.0 0.00 0.00 0.00 79 1019.6
20260509222111 8 0 0.0 0.0 0.00 0.00 0.00 80 1019.6
20260509221352 8 0 0.0 0.0 0.00 0.00 0.00 78 1019.6
20260509220634 8 0 0.0 0.0 0.00 0.00 0.00 78 1019.5
20260509215915 9 0 0.0 0.0 0.00 0.00 0.00 78 1019.5
20260509215157 9 0 0.0 0.0 0.00 0.00 0.00 79 1019.6
20260509214438 8 0 0.0 0.0 0.00 0.00 0.00 80 1019.8
20260509212017 10 0 0.0 0.0 0.00 0.00 0.00 78 1019.8
20260509211258 10 0 0.0 0.0 0.00 0.00 0.00 78 1019.9
20260509210539 10 0 0.0 0.0 0.00 0.00 0.00 78 1020.0
20260509205822 10 0 0.0 0.0 0.00 0.00 0.00 78 1019.9
20260509205103 10 0 0.0 0.0 0.00 0.00 0.00 77 1020.0
20260509204345 10 0 0.0 0.0 0.00 0.00 0.00 76 1020.0
20260509203628 10 0 0.0 0.0 0.00 0.00 0.00 76 1019.9
20260509202910 10 0 0.0 0.0 0.00 0.00 0.00 76 1020.0
20260509202152 10 0 0.0 0.0 0.00 0.00 0.00 76 1019.9
20260509201427 10 0 0.0 0.0 0.00 0.00 0.00 76 1020.0
20260509200709 10 0 0.0 0.0 0.00 0.00 0.00 76 1020.0
20260509195950 11 0 0.0 0.0 0.00 0.00 0.00 74 1020.0
20260509195231 11 0 0.0 0.0 0.00 0.00 0.00 74 1019.8
20260509194514 11 0 0.0 0.0 0.00 0.00 0.00 74 1019.8
20260509193756 11 0 0.0 0.0 0.00 0.00 0.00 72 1019.8
20260509192753 11 0 0.0 0.0 0.00 0.00 0.00 72 1019.7
20260509192034 11 0 0.0 0.0 0.00 0.00 0.00 72 1019.7
20260509191317 11 0 0.0 0.0 0.00 0.00 0.00 71 1019.6
20260509190559 11 0 0.0 0.0 0.00 0.00 0.00 70 1019.6
20260509185839 11 0 0.0 0.0 0.00 0.00 0.00 70 1019.5
20260509185120 12 0 0.0 0.0 0.00 0.00 0.00 70 1019.5
20260509184401 12 0 0.0 0.0 0.00 0.00 0.00 70 1019.5
20260509183642 12 0 0.0 0.0 0.00 0.00 0.00 68 1019.4
20260509182924 12 0 0.0 0.0 0.00 0.00 0.00 68 1019.4
20260509182206 13 0 0.0 0.0 0.00 0.00 0.00 66 1019.4
20260509181446 13 0 0.0 0.0 0.00 0.00 0.00 64 1019.4
20260509180728 13 0 0.0 0.0 0.00 0.00 0.00 64 1019.6
20260509180007 13 0 0.0 0.0 0.00 0.00 0.00 63 1019.4
20260509175248 14 0 0.0 0.0 0.00 0.00 0.00 62 1019.4
20260509174531 14 0 0.0 0.0 0.00 0.00 0.00 60 1019.4
20260509173528 14 0 0.0 0.0 0.00 0.00 0.00 58 1019.4
20260509172810 15 0 0.0 0.0 0.00 0.00 0.00 56 1019.4
20260509172052 15 0 0.0 0.0 0.00 0.00 0.00 56 1019.4
20260509171333 16 0 0.0 0.0 0.00 0.00 0.00 54 1019.4
20260509170615 16 0 0.0 0.0 0.00 0.00 0.00 54 1019.4
20260509164431 18 0 0.0 0.0 0.00 0.00 0.00 48 1019.4
20260509163713 20 0 0.0 0.0 0.00 0.00 0.00 44 1019.3
20260509162954 21 0 0.0 0.0 0.00 0.00 0.00 42 1019.5
20260509162235 18 0 0.0 0.0 0.00 0.00 0.00 48 1019.4
20260509161516 17 0 0.0 0.0 0.00 0.00 0.00 50 1019.5
20260509160800 20 0 0.0 0.0 0.00 0.00 0.00 42 1020.0
20260509160040 22 0 0.0 0.0 0.00 0.00 0.00 39 1019.6
20260509155320 18 0 0.0 0.0 0.00 0.00 0.00 48 1019.6
20260509154317 18 0 0.0 0.0 0.00 0.00 0.00 49 1019.6
20260509153558 18 0 0.0 0.0 0.00 0.00 0.00 48 1019.6
20260509152837 18 0 0.0 0.0 0.00 0.00 0.00 48 1019.6
20260509152118 17 0 0.0 0.0 0.00 0.00 0.00 50 1019.7
20260509151357 17 0 0.0 0.0 0.00 0.00 0.00 48 1019.6
20260509150638 23 0 0.0 0.0 0.00 0.00 0.00 36 1019.5
20260509145916 23 0 0.0 0.0 0.00 0.00 0.00 38 1019.5
20260509145155 19 0 0.0 0.0 0.00 0.00 0.00 44 1019.6
20260509144436 18 0 0.0 0.0 0.00 0.00 0.00 46 1019.6
20260509143714 21 0 0.0 0.0 0.00 0.00 0.00 42 1019.6
20260509142952 21 0 0.0 0.0 0.00 0.00 0.00 42 1019.6
20260509142234 18 0 0.0 0.0 0.00 0.00 0.00 46 1019.7
20260509141515 17 0 0.0 0.0 0.00 0.00 0.00 48 1019.8
20260509140757 17 0 0.0 0.0 0.00 0.00 0.00 49 1020.2
20260509140036 18 0 0.0 0.0 0.00 0.00 0.00 46 1019.8
20260509135028 18 0 0.0 0.0 0.00 0.00 0.00 46 1020.0
20260509134309 18 0 0.0 0.0 0.00 0.00 0.00 46 1020.0
20260509133550 19 0 0.0 0.0 0.00 0.00 0.00 46 1019.9
20260509132829 19 0 0.0 0.0 0.00 0.00 0.00 45 1020.1
20260509132110 18 0 0.0 0.0 0.00 0.00 0.00 46 1020.4
20260509131348 19 0 0.0 0.0 0.00 0.00 0.00 44 1020.2
20260509130615 18 0 0.0 0.0 0.00 0.00 0.00 46 1020.4
20260509125838 18 0 0.0 0.0 0.00 0.00 0.00 48 1020.5
20260509125059 18 0 0.0 0.0 0.00 0.00 0.00 48 1020.5
20260509124320 18 0 0.0 0.0 0.00 0.00 0.00 50 1020.5
20260509123544 17 0 0.0 0.0 0.00 0.00 0.00 50 1020.6
20260509122752 17 0 0.0 0.0 0.00 0.00 0.00 50 1020.6
20260509121954 16 0 0.0 0.0 0.00 0.00 0.00 54 1020.6
20260509121154 16 0 0.0 0.0 0.00 0.00 0.00 54 1020.6
20260509120356 16 0 0.0 0.0 0.00 0.00 0.00 54 1020.8
20260509113816 17 0 0.0 0.0 0.00 0.00 0.00 50 1020.9
20260509113033 18 0 0.0 0.0 0.00 0.00 0.00 50 1021.0
20260509112259 18 0 0.0 0.0 0.00 0.00 0.00 48 1021.4
20260509111536 17 0 0.0 0.0 0.00 0.00 0.00 50 1021.1
20260509110817 18 0 0.0 0.0 0.00 0.00 0.00 50 1021.1
20260509110059 18 0 0.0 0.0 0.00 0.00 0.00 48 1021.2
20260509105335 18 0 0.0 0.0 0.00 0.00 0.00 49 1021.2
20260509104617 17 0 0.0 0.0 0.00 0.00 0.00 50 1021.3
20260509103857 17 0 0.0 0.0 0.00 0.00 0.00 48 1021.2
20260509103136 17 0 0.0 0.0 0.00 0.00 0.00 50 1021.3
20260509102416 17 0 0.0 0.0 0.00 0.00 0.00 48 1021.2
20260509101656 18 0 0.0 0.0 0.00 0.00 0.00 48 1021.2
20260509100937 18 0 0.0 0.0 0.00 0.00 0.00 47 1021.3
20260509095932 17 0 0.0 0.0 0.00 0.00 0.00 49 1021.4
20260509095211 18 0 0.0 0.0 0.00 0.00 0.00 48 1021.4
20260509094452 18 0 0.0 0.0 0.00 0.00 0.00 51 1021.3
20260509093732 17 0 0.0 0.0 0.00 0.00 0.00 52 1021.4
20260509093012 17 0 0.0 0.0 0.00 0.00 0.00 52 1021.2
20260509092251 17 0 0.0 0.0 0.00 0.00 0.00 54 1021.3
20260509091531 16 0 0.0 0.0 0.00 0.00 0.00 55 1021.2
20260509090811 16 0 0.0 0.0 0.00 0.00 0.00 58 1021.4
20260509090050 15 0 0.0 0.0 0.00 0.00 0.00 60 1021.2
20260509085328 15 0 0.0 0.0 0.00 0.00 0.00 61 1021.4
20260509084608 15 0 0.0 0.0 0.00 0.00 0.00 62 1021.2
20260509083849 15 0 0.0 0.0 0.00 0.00 0.00 60 1021.4
20260509083128 15 0 0.0 0.0 0.00 0.00 0.00 62 1021.4
20260509082408 15 0 0.0 0.0 0.00 0.00 0.00 63 1021.4
20260509081649 14 0 0.0 0.0 0.00 0.00 0.00 65 1021.4
20260509080643 14 0 0.0 0.0 0.00 0.00 0.00 66 1021.4
20260509075921 14 0 0.0 0.0 0.00 0.00 0.00 68 1021.4
20260509075201 14 0 0.0 0.0 0.00 0.00 0.00 70 1021.4
20260509074442 13 0 0.0 0.0 0.00 0.00 0.00 70 1021.4
20260509073723 13 0 0.0 0.0 0.00 0.00 0.00 70 1021.6